CAPE
0 0 0 0 0 0 0 0 0 0 0 0 0 0 0 0 0 3 3 1 0 0 0 1 0 0 0 0 2 3 3 4 1 2 3 2 0 0 0 0 0 0 0
0 0 0 0 0 0 0 0 0 0 0 0 0 0 0 0 0 6 2 0 0 0 0 1 0 0 0 0 3 3 3 3 4 4 3 0 0 0 0 0 0 0 1
0 0 0 0 0 0 0 0 0 0 0 0 0 0 0 0 1 2 4 1 0 0 0 1 0 0 0 0 2 4 3 2 4 6 4 4 0 1 1 1 5 3 1
0 0 0 0 0 0 0 0 0 0 0 0 0 0 0 0 0 0 0 1 0 0 1 1 1 0 0 0 1 3 3 3 4 8 7 5 1 1 5 0 4 2 1
0 0 0 0 0 0 0 0 0 0 0 0 0 0 0 0 0 0 0 0 0 0 0 1 1 2 1 1 0 2 4 3 6 9 7 8 2 5 4 4 2 1 1
0 0 0 0 0 0 0 0 0 0 0 0 0 0 0 0 0 0 0 0 0 0 0 0 0 1 1 1 1 1 1 3 6 9 9 7 3 3 10 4 0 0 0
0 0 0 0 0 0 0 0 0 0 0 0 0 0 0 0 0 0 0 0 0 0 0 0 0 1 1 1 1 1 1 1 0 1 6 8 5 3 3 2 0 0 0
0 0 0 0 0 0 0 0 0 0 0 0 0 0 0 0 0 0 0 0 0 0 0 0 0 1 1 1 1 1 2 1 1 1 1 1 4 2 2 2 4 5 4
0 0 0 0 0 0 0 0 0 0 0 0 0 0 0 0 0 0 0 0 0 0 0 0 1 0 1 0 0 1 2 1 1 1 1 2 4 4 5 0 0 0 0
0 0 0 0 0 0 0 0 0 0 0 0 0 0 0 0 0 0 0 0 0 0 0 0 1 1 1 1 1 1 0 1 1 1 1 1 2 2 2 4 4 2 1
0 0 0 0 0 0 0 0 0 0 0 0 0 0 0 0 0 0 0 0 0 0 0 0 0 0 1 0 0 1 0 0 0 1 1 1 1 1 1 2 2 3 9
0 0 0 0 0 0 0 0 0 0 0 0 0 0 0 0 0 0 0 0 0 0 0 0 0 0 0 0 0 0 0 0 0 0 1 2 2 2 1 1 1 1 2
0 0 0 0 0 0 0 0 0 0 0 0 0 0 0 0 0 0 0 0 0 0 0 0 0 0 0 0 0 0 0 0 0 0 1 1 1 0 0 1 0 0 1
0 0 0 0 0 0 0 0 0 0 0 0 0 0 0 0 0 0 0 0 0 0 0 0 0 0 0 0 0 0 0 0 0 0 0 0 0 0 0 0 0 0 1
0 0 0 0 0 0 0 0 0 0 0 0 0 0 0 0 0 0 0 0 0 0 0 0 0 0 0 0 0 0 0 0 0 0 0 0 0 0 0 0 0 0 1
0 0 0 0 0 0 0 0 0 0 0 0 0 0 0 0 0 0 0 0 0 0 0 0 0 0 0 0 0 0 0 0 0 0 0 0 0 0 0 0 0 0 0
0 0 0 0 0 0 0 0 0 0 0 0 0 0 0 0 0 0 0 0 0 0 0 0 0 0 0 0 0 0 0 0 0 0 0 0 0 0 0 0 0 0 0
0 0 0 0 0 0 0 0 0 0 0 0 0 0 0 0 0 0 0 0 0 0 0 0 0 0 0 0 0 0 0 0 0 0 0 0 0 0 0 0 0 0 0
0 0 0 0 0 0 0 0 0 0 0 0 0 0 0 0 0 0 0 0 0 0 0 0 0 0 0 0 0 0 0 0 0 0 0 0 0 0 0 0 0 0 0
0 0 0 0 0 0 0 0 0 0 0 0 0 0 0 0 0 0 0 0 0 0 0 0 0 0 0 0 0 0 0 0 0 0 0 0 0 0 0 0 0 0 0
0 0 0 0 0 0 0 0 0 0 0 0 0 0 0 0 0 0 0 0 0 0 0 0 0 0 0 0 0 0 0 0 0 0 0 0 0 0 0 0 0 0 0
0 0 0 0 0 0 0 0 0 0 0 0 0 0 0 0 0 0 0 0 0 0 0 0 0 0 0 0 0 0 0 0 0 0 0 0 0 0 0 0 0 0 0
0 0 0 0 0 0 0 0 0 0 0 0 0 0 0 0 0 0 0 0 0 0 0 0 0 0 0 0 0 0 0 0 0 0 0 0 0 0 0 0 0 0 0
0 0 0 0 0 0 0 0 0 0 0 0 0 0 0 0 0 0 0 0 0 0 0 0 0 0 0 0 0 0 0 0 0 0 0 0 0 0 0 0 0 0 0
0 0 0 0 0 0 0 0 0 0 0 0 0 0 0 0 0 0 0 0 0 0 0 0 0 0 0 0 0 0 0 0 0 0 0 0 0 0 0 0 0 0 0
0 0 0 0 0 0 0 0 0 0 0 0 0 0 0 0 0 0 0 0 0 0 0 0 0 0 0 0 0 0 0 0 0 0 0 0 0 0 0 0 0 0 0
CIN
0 0 0 0 0 0 0 0 0 0 0 0 0 0 0 0 0 -0 -0 0 0 0 0 0 0 0 0 0 0 0 0 0 0 0 0 0 0 0 0 0 0 0 0
0 0 0 0 0 0 0 0 0 0 0 0 0 0 0 0 -7 0 -0 0 0 0 0 0 0 0 0 0 0 0 0 0 0 0 0 0 0 0 0 0 0 0 0
0 0 0 0 0 0 0 0 0 0 0 0 0 0 0 0 -8 -0 -0 -0 0 0 0 0 0 0 0 0 0 0 0 0 0 0 0 0 0 0 0 0 0 0 0
0 0 0 0 0 0 0 0 0 0 0 0 0 0 0 0 0 -0 -0 -0 0 0 0 0 0 0 0 0 0 0 0 0 0 0 0 0 0 0 0 0 -2 0 0
0 0 0 0 0 0 0 0 0 0 0 0 0 0 0 0 0 0 0 -0 -0 0 0 0 0 0 0 0 0 0 0 0 0 0 0 0 0 0 0 0 0 0 0
0 0 0 0 0 0 0 0 0 0 0 0 0 0 0 0 0 0 0 0 0 0 0 0 0 0 0 0 0 0 0 0 0 0 0 0 0 0 0 0 0 0 0
0 0 0 0 0 0 0 0 0 0 0 0 0 0 0 0 0 0 0 0 0 0 0 0 0 0 0 0 0 0 0 0 0 0 0 0 0 0 0 0 0 0 0
0 0 0 0 0 0 0 0 0 0 0 0 0 0 0 0 0 0 0 0 0 0 0 -0 0 0 0 0 0 0 0 0 0 0 0 0 0 0 0 0 0 0 0
0 0 0 0 0 0 0 0 0 0 0 0 0 0 0 0 0 0 0 0 0 0 0 -1 -0 -0 0 0 0 0 0 0 0 0 0 0 0 0 0 0 0 0 0
0 0 0 0 0 0 0 0 0 0 0 0 0 0 0 0 0 0 0 0 0 0 0 0 0 0 0 0 0 0 0 0 0 0 0 0 0 0 0 0 0 0 0
0 0 0 0 0 0 0 0 0 0 0 0 0 0 0 0 0 0 0 0 0 0 0 0 0 -0 0 0 0 0 0 0 0 0 0 0 0 0 0 0 0 0 0
0 0 0 0 0 0 0 0 0 0 0 0 0 0 0 0 0 0 0 0 0 0 0 0 0 0 0 0 0 0 0 0 0 0 0 0 0 0 0 0 0 0 0
0 0 0 0 0 0 0 0 0 0 0 0 0 0 0 0 0 0 0 0 0 0 0 0 0 0 0 0 0 0 0 0 0 0 0 0 0 0 0 0 0 0 0
0 0 0 0 0 0 0 0 0 0 0 0 0 0 0 0 0 0 0 0 0 0 0 0 0 0 0 0 0 0 0 0 0 0 0 0 0 0 0 0 0 0 0
0 0 0 0 0 0 0 0 0 0 0 0 0 0 0 0 0 0 0 0 0 0 0 0 0 0 0 0 0 0 0 0 0 0 0 0 0 0 0 0 0 0 0
0 0 0 0 0 0 0 0 0 0 0 0 0 0 0 0 0 0 0 0 0 0 0 0 0 0 0 0 0 0 0 0 0 0 0 0 0 0 0 0 0 0 0
0 0 0 0 0 0 0 0 0 0 0 0 0 0 0 0 0 0 0 0 0 0 0 0 0 0 0 0 0 0 0 0 0 0 0 0 0 0 0 0 0 0 0
0 0 0 0 0 0 0 0 0 0 0 0 0 0 0 0 0 0 0 0 0 0 0 0 0 0 0 0 0 0 0 0 0 0 0 0 0 0 0 0 0 0 0
0 0 0 0 0 0 0 0 0 0 0 0 0 0 0 0 0 0 0 0 0 0 0 0 0 0 0 0 0 0 0 0 0 0 0 0 0 0 0 0 0 0 0
0 0 0 0 0 0 0 0 0 0 0 0 0 0 0 0 0 0 0 0 0 0 0 0 0 0 0 0 0 0 0 0 0 0 0 0 0 0 0 0 0 0 0
0 0 0 0 0 0 0 0 0 0 0 0 0 0 0 0 0 0 0 0 0 0 0 0 0 0 0 0 0 0 0 0 0 0 0 0 0 0 0 0 0 0 0
0 0 0 0 0 0 0 0 0 0 0 0 0 0 0 0 0 0 0 0 0 0 0 0 0 0 0 0 0 0 0 0 0 0 0 0 0 0 0 0 0 0 0
0 0 0 0 0 0 0 0 0 0 0 0 0 0 0 0 0 0 0 0 0 0 0 0 0 0 0 0 0 0 0 0 0 0 0 0 0 0 0 0 0 0 0
0 0 0 0 0 0 0 0 0 0 0 0 0 0 0 0 0 0 0 0 0 0 0 0 0 0 0 0 0 0 0 0 0 0 0 0 0 0 0 0 0 0 0
0 0 0 0 0 0 0 0 0 0 0 0 0 0 0 0 0 0 0 0 0 0 0 0 0 0 0 0 0 0 0 0 0 0 0 0 0 0 0 0 0 0 0
0 0 0 0 0 0 0 0 0 0 0 0 0 0 0 0 0 0 0 0 0 0 0 0 0 0 0 0 0 0 0 0 0 0 0 0 0 0 0 0 0 0 0
Wind_Speed
29 31 32 33 33 33 34 32 29 31 32 35 32 31 27 16 15 12 12 12 9 9 9 9 9 8 6 4 6 11 12 16 23 21 22 27 27 28 30 38 44 44 47
28 29 32 32 32 33 33 34 34 33 32 33 31 31 25 17 15 12 13 15 12 10 10 9 9 9 8 2 4 7 11 12 18 19 22 22 24 26 30 41 43 42 45
27 28 30 31 32 33 33 34 35 35 34 33 32 31 23 17 12 12 13 12 12 11 10 8 9 10 9 5 1 4 7 9 10 17 22 20 20 22 24 30 36 38 40
26 28 30 30 31 32 33 34 34 35 35 35 33 29 25 20 12 11 13 13 13 12 11 9 10 10 10 8 5 1 4 6 7 13 16 16 16 17 22 27 32 35 36
25 28 29 30 30 32 32 33 33 35 35 35 34 30 26 26 15 19 17 17 14 13 13 11 10 13 11 12 8 6 3 4 5 11 11 11 12 17 24 26 29 30 30
25 27 28 29 30 32 32 33 33 34 35 35 35 33 29 26 15 16 17 16 14 14 15 12 11 14 11 10 11 12 10 4 4 9 6 7 9 17 16 24 27 31 33
25 27 28 29 30 31 32 34 34 35 35 35 35 33 32 23 15 13 16 13 17 14 14 14 13 15 13 9 10 11 12 11 5 7 6 3 8 12 15 18 24 26 29
25 26 27 28 30 31 32 34 34 35 36 36 36 34 32 29 14 14 12 13 14 15 14 17 15 17 16 13 10 11 11 10 7 4 4 3 1 6 10 15 15 19 22
24 26 27 28 30 30 32 34 34 35 36 36 34 34 32 29 17 14 12 13 14 17 15 17 18 17 18 16 13 12 11 12 9 5 9 12 14 9 3 6 12 20 23
24 25 26 27 30 31 31 33 34 34 35 35 36 34 32 30 26 15 15 13 13 14 15 16 20 20 19 18 15 12 11 9 7 6 8 10 13 13 10 5 5 12 18
24 25 27 28 29 30 31 31 32 34 35 36 36 33 32 31 29 28 16 20 13 12 15 16 17 20 22 20 17 14 11 10 10 6 6 7 8 10 10 11 9 2 5
24 26 26 27 28 28 30 31 32 33 36 36 35 34 32 30 28 29 29 20 13 16 12 14 15 19 20 22 19 18 14 12 12 7 7 6 6 6 8 8 10 10 7
24 25 27 28 28 29 30 30 32 32 34 34 35 35 32 28 29 30 30 30 27 13 13 13 17 19 19 19 21 20 17 14 15 10 7 7 6 7 7 7 8 9 10
24 25 25 26 28 29 29 30 31 32 33 33 33 34 32 30 29 30 31 30 29 29 16 11 11 16 20 19 19 19 17 15 15 15 11 9 9 10 9 9 8 8 10
23 23 24 25 26 27 29 29 31 30 30 32 31 30 31 32 31 31 32 31 30 28 28 26 14 15 19 19 19 19 18 18 17 16 14 15 13 12 12 12 11 10 10
22 22 22 23 24 25 27 28 28 29 29 30 28 28 27 30 32 33 34 33 32 30 32 32 29 22 14 16 17 18 19 19 17 16 17 18 17 14 13 14 14 14 12
21 21 21 21 22 23 23 24 25 24 25 27 28 28 29 29 29 30 32 34 33 33 37 33 30 27 22 17 11 18 19 17 17 18 17 17 16 17 17 17 17 16 15
21 20 20 20 20 20 21 21 22 23 24 24 24 26 27 29 29 29 29 30 34 34 35 34 34 32 28 26 19 11 11 19 20 19 20 18 18 17 17 17 18 17 16
20 20 20 20 19 19 19 20 20 21 22 23 22 23 24 27 29 29 30 31 32 32 32 34 33 33 32 33 31 31 20 16 20 23 22 21 21 20 19 18 18 18 18
20 20 19 19 19 19 19 19 19 19 20 20 21 21 22 23 26 27 28 29 30 30 29 30 30 31 31 31 33 34 36 33 27 25 24 23 24 23 22 21 21 20 20
20 19 19 18 18 18 17 17 17 18 18 18 18 19 20 21 23 23 24 25 26 26 26 27 28 28 28 29 30 32 33 32 33 33 31 28 26 25 24 24 23 23 22
19 19 18 17 17 16 16 16 16 16 16 16 16 17 18 18 19 20 20 21 22 22 22 23 24 25 25 26 26 27 28 29 29 29 30 29 28 27 26 26 25 25 24
18 18 17 16 16 15 15 15 14 14 14 14 14 15 15 15 15 16 17 17 18 19 19 19 20 20 21 22 22 22 22 23 24 25 25 25 26 26 26 26 26 26 26
17 17 16 15 15 14 14 13 13 12 12 12 12 12 12 12 12 12 13 13 14 14 15 15 15 16 16 17 17 18 18 18 19 20 21 22 22 22 23 24 25 25 25
17 16 15 14 13 12 12 12 12 11 11 10 10 10 9 9 9 9 9 10 10 10 10 10 11 11 11 12 12 13 14 15 15 16 17 18 19 19 21 22 22 23 24
16 15 13 12 11 11 11 11 10 10 9 9 8 8 7 7 7 6 6 6 6 6 6 6 6 6 7 7 8 9 10 11 12 13 14 15 16 18 18 20 21 22 23
Wind_Direction
32 35 35 35 37 38 38 39 41 39 39 38 41 44 50 50 45 30 19 358 12 350 342 337 340 339 326 261 218 204 197 199 199 204 209 202 203 204 210 208 204 202 203
38 40 38 40 41 41 41 41 42 41 43 42 45 47 53 52 46 31 13 358 5 359 349 349 347 354 358 332 217 201 203 205 202 201 204 203 205 210 218 211 206 205 203
44 44 42 43 44 44 44 44 45 44 46 45 48 50 55 52 35 34 14 27 13 8 359 3 360 3 13 14 1 196 203 206 207 191 192 203 208 222 221 196 196 199 201
49 47 46 47 48 48 47 48 48 47 48 48 50 54 57 57 31 31 16 17 23 18 10 15 10 11 18 23 35 115 186 185 190 186 190 199 209 217 199 190 189 194 198
53 50 50 51 52 51 50 50 50 50 50 50 52 57 61 61 44 359 4 5 28 31 17 21 22 13 18 26 40 44 92 154 155 176 184 199 215 206 199 201 185 187 198
57 54 55 55 54 52 53 53 53 52 52 52 53 56 62 64 45 11 7 11 25 37 23 27 25 15 17 26 33 40 47 87 114 170 179 193 215 212 205 199 193 192 203
60 59 59 58 56 56 57 54 55 54 53 53 55 58 61 66 47 31 13 29 16 36 33 27 24 17 17 23 30 37 42 48 94 158 173 214 214 210 208 200 203 206 210
64 64 62 61 59 60 59 56 56 56 54 54 56 60 62 66 43 29 36 28 29 27 41 26 26 20 19 21 29 37 42 44 57 94 88 72 70 204 203 205 206 208 211
70 68 67 65 62 62 59 58 58 57 57 56 59 61 64 66 61 50 50 48 31 24 30 32 27 24 22 23 29 36 42 38 30 51 41 44 48 57 100 192 214 214 217
76 74 71 69 64 63 62 61 60 60 60 61 61 64 67 68 68 58 66 66 42 32 28 29 28 27 26 27 30 32 42 25 25 40 43 47 44 45 48 38 227 224 235
81 78 73 69 65 65 65 64 64 64 64 64 65 68 69 70 70 70 67 80 71 49 29 25 25 27 30 31 33 33 32 22 23 36 47 44 41 39 35 30 22 325 251
83 78 75 70 69 68 67 67 68 67 64 65 67 69 70 71 71 72 74 75 69 81 45 29 26 26 30 31 32 31 30 26 25 36 38 30 28 18 17 20 24 26 22
86 80 75 72 71 70 70 70 69 69 67 68 69 70 72 73 72 73 75 77 80 72 79 36 27 27 29 31 30 31 31 29 29 33 24 15 15 14 17 19 21 22 30
89 86 83 79 73 73 73 72 71 70 70 71 72 71 72 73 73 74 76 79 80 83 80 56 47 28 28 28 28 28 29 31 33 29 21 13 7 11 10 358 360 353 14
97 95 88 83 81 79 75 73 72 74 75 74 77 76 73 72 73 75 76 78 81 83 86 87 47 30 25 23 23 23 23 25 27 24 21 20 16 12 5 360 1 358 8
103 101 95 91 87 84 79 77 77 78 76 77 80 80 80 78 76 75 75 77 79 83 84 84 86 87 36 21 18 18 18 19 16 18 20 21 20 14 9 6 6 7 358
111 107 102 98 95 90 88 85 81 84 82 79 78 78 78 79 79 79 79 76 78 80 78 82 85 87 89 89 37 17 16 12 12 17 15 13 13 13 13 10 7 5 4
115 112 111 110 105 101 99 93 89 86 84 82 82 79 77 77 79 81 82 81 77 76 77 78 80 83 88 90 94 82 27 17 18 16 16 13 12 10 10 7 6 1 359
121 119 115 112 109 107 106 101 95 92 89 87 85 83 81 76 75 75 76 75 76 76 78 77 78 79 79 80 83 84 96 20 20 22 20 19 17 15 12 8 4 3 1
129 124 118 114 109 107 106 103 100 97 95 92 87 84 82 79 73 72 74 74 73 73 76 76 78 78 79 79 76 72 59 40 27 23 21 20 21 20 17 13 10 8 4
130 128 125 119 116 116 113 110 106 102 100 96 91 89 84 80 76 76 74 74 74 75 75 74 73 73 75 75 75 70 67 64 59 49 39 30 24 22 18 16 13 10 7
131 132 129 127 123 121 117 114 113 108 103 99 95 93 87 82 82 81 80 78 79 78 79 78 76 73 71 70 71 68 62 54 54 51 45 40 33 24 22 19 16 11 6
135 136 134 132 130 124 120 120 118 116 110 107 102 97 96 89 88 87 85 85 83 82 83 81 78 73 71 68 67 66 64 60 55 51 44 41 33 28 25 21 16 10 6
143 141 140 137 135 131 130 127 127 125 119 116 112 107 104 101 97 94 91 89 88 86 84 81 78 75 71 67 62 59 56 54 50 44 40 37 34 30 25 22 17 13 8
148 147 145 143 142 141 138 135 136 134 131 129 125 121 118 113 108 105 101 95 92 89 86 82 78 74 71 66 62 56 50 46 42 36 32 29 24 21 16 12 9 5 0
154 153 152 148 150 150 150 148 149 144 143 141 136 133 131 129 124 122 119 110 100 95 89 83 78 71 65 61 55 49 43 35 28 23 17 15 10 6 4 2 359 358 355